This demonstration page uses our WeatherBlox Daily Observations layout. Learn more.

Left ArrowRight Arrow

Hourly Observations for September 18, 2018

Temp ( °F °C ) Dew Point ( °F °C ) Humidity (%) Winds ( mph kmh ) Pressure ( in mb ) Visibility ( mi km ) Precip ( " mm )
12:57 am 00:57 Clear 74 23.3 67 19.4 79 79 S 9 15 29.85 1011 10 16 0.00 0.00
1:57 am 01:57 Clear 73 22.8 67 19.4 81 81 S 10 17 29.86 1011 10 16 0.00 0.00
2:57 am 02:57 Clear 72 22.2 66 18.9 82 82 S 9 15 29.84 1011 10 16 0.00 0.00
3:57 am 03:57 Clear 72 22.2 66 18.9 82 82 S 8 13 29.83 1010 10 16 0.00 0.00
4:57 am 04:57 Clear 70 21.1 66 18.9 87 87 S 10 17 29.83 1010 10 16 0.00 0.00
5:57 am 05:57 Clear 68 20 65 18.3 90 90 S 7 11 29.83 1010 8 13 0.00 0.00
6:57 am 06:57 Clear 72 22.2 65 18.3 79 79 Calm 29.87 1011 10 16 0.00 0.00
7:57 am 07:57 Sunny 69 20.6 65 18.3 87 87 ESE 3 6 29.88 1012 10 16 0.00 0.00
8:57 am 08:57 Sunny 72 22.2 65 18.3 79 79 E 3 6 29.88 1012 10 16 0.00 0.00
9:57 am 09:57 Mostly Sunny 78 25.6 66 18.9 67 67 N 13 20 29.90 1013 10 16 0.00 0.00
10:57 am 10:57 Cloudy 71 21.7 64 17.8 79 79 N 14 22 29.93 1014 10 16 0.00 0.00
11:57 am 11:57 Sunny 78 25.6 64 17.8 62 62 NE 13 20 29.90 1013 10 16 0.00 0.00
12:57 pm 12:57 Sunny 84 28.9 59 15 43 43 NE 20 31 29.86 1011 10 16 0.00 0.00
1:57 pm 13:57 Sunny 86 30 61 16.1 43 43 ENE 18 30 29.86 1011 10 16 0.00 0.00
2:57 pm 14:57 Sunny 86 30 60 15.6 42 42 E 17 28 29.82 1010 9 14 0.00 0.00
3:57 pm 15:57 Sunny 85 29.4 65 18.3 51 51 E 16 26 29.81 1010 10 16 0.00 0.00
4:57 pm 16:57 Sunny 86 30 68 20 55 55 E 14 22 29.79 1009 10 16 0.00 0.00
5:57 pm 17:57 Sunny 86 30 69 20.6 57 57 ENE 13 20 29.80 1009 10 16 0.00 0.00
6:57 pm 18:57 Sunny 82 27.8 68 20 63 63 ENE 16 26 29.81 1009 10 16 0.00 0.00
7:57 pm 19:57 Clear 76 24.4 67 19.4 74 74 E 21 33 29.83 1010 10 16 0.00 0.00
8:57 pm 20:57 Clear 72 22.2 66 18.9 82 82 E 10 17 29.83 1010 10 16 0.00 0.00
9:57 pm 21:57 Clear 70 21.1 66 18.9 87 87 ENE 9 15 29.84 1011 10 16 0.00 0.00
10:57 pm 22:57 Clear 69 20.6 65 18.3 87 87 E 9 15 29.84 1010 10 16 0.00 0.00
11:57 pm 23:57 Clear 67 19.4 65 18.3 93 93 E 7 11 29.83 1010 10 16 0.00 0.00

Powered by AerisWeather